Regional Weather Roundup
Issued by NWS

Home | Current Version | Previous Version | Text Only | Print | Product List | Glossary On
Versions: 1 2 3 4 5 6 7 8 9 10 11 12 13 14 15 16 17 18 19 20 21 22 23 24 25 26 27 28 29 30 31 32 33 34 35 36 37 38 39 40 41 42 43 44 45 46 47 48 49 50
000
ASUS43 KMKX 040911
RWRWI

WISCONSIN REGIONAL WEATHER ROUNDUP
NATIONAL WEATHER SERVICE MILWAUKEE/SULLIVAN WI
400 AM CDT MON MAY 04 2015

NOTE: "FAIR" INDICATES FEW OR NO CLOUDS BELOW 12,000 FEET WITH NO
SIGNIFICANT WEATHER AND/OR OBSTRUCTIONS TO VISIBILITY.

WIZ001-002-006>008-014>016-023>028-041000-
NORTHWEST WISCONSIN

CITY           SKY/WX    TMP DP  RH WIND       PRES   REMARKS
SUPERIOR ARPT  CLEAR     51  35  55 N3        30.04R
ASHLAND        CLEAR     44  35  70 N7        30.02R
HAYWARD        CLEAR     43  38  82 NE5       30.01R
SIREN          CLEAR     47  32  55 CALM      30.03R
CUMBERLAND     CLEAR     50  32  50 N10       30.01R
RICE LAKE      CLEAR     52  36  54 N10       30.02R
CHETEK         CLEAR     51  44  76 NW6       30.00R
LADYSMITH      CLEAR     52  45  76 N15       29.99R
EAU CLAIRE     PTCLDY    53  45  74 N7        29.96R
MENOMONIE      CLEAR     53  47  79 NW7       29.99R
NEW RICHMOND   CLEAR     50  37  59 N9        30.02R
OSCEOLA        CLEAR     50  40  68 N5        30.05R
$$

WIZ003>005-009-010-017-018-041000-
NORTH CENTRAL WISCONSIN

CITY           SKY/WX    TMP DP  RH WIND       PRES   REMARKS
MANITOWISH WTR PTCLDY    51  39  63 N8        29.97R
ARBOR VITAE    MOCLDY    52  47  82 N7        29.95R
WOODRUFF       MOCLDY    52  47  82 N7        29.95R
RHINELANDER    CLOUDY    52  45  77 N6        29.94R
EAGLE RIVER    CLOUDY    49  45  85 N7        29.94R
LAND O LAKES   CLOUDY    51  45  79 NW5       29.95R
PHILLIPS       CLEAR     48  43  83 NW7       29.96R
TOMAHAWK       FOG       44  42  96 W3        29.95R VSB 1/2
MEDFORD        MOCLDY    50  48  92 N5        29.95R
MERRILL        CLOUDY    50  50  99 CALM      29.93S
$$

WIZ029-030-035-036-043>047-041000-
CENTRAL WISCONSIN

CITY           SKY/WX    TMP DP  RH WIND       PRES   REMARKS
WAUSAU         CLOUDY    54  52  93 N5        29.92R
MOSINEE        CLOUDY    50  50 100 CALM      29.92S
MARSHFIELD     CLOUDY    53  53 100 NW5       29.93R FOG
STEVENS POINT  CLOUDY    53  53  98 CALM      29.93S
WAUPACA        CLOUDY    59  59 100 W5        29.91R
WAUTOMA        CLOUDY    57  57 100 CALM      29.93R
WISC RAPIDS    CLOUDY    56  54  93 N3        29.94R
CAMP DOUGLAS   CLOUDY    57  57 100 W3        29.93R
$$

WIZ011>013-019>022-031-037>040-048>050-041000-
NORTHEAST WISCONSIN

CITY           SKY/WX    TMP DP  RH WIND       PRES   REMARKS
ANTIGO         CLOUDY    52  50  93 NW3       29.93R
SHAWANO        CLOUDY    58  57  94 W3        29.91R
OCONTO         CLOUDY    57  57 100 NW5       29.89R
STURGEON BAY   CLOUDY    57  54  88 CALM      29.89S
GREEN BAY      CLOUDY    58  57  97 S5        29.88R
MANITOWOC      LGT RAIN  59  57  93 NE5       29.86F
APPLETON       CLOUDY    55  55 100 W3        29.90R
CLINTONVILLE   CLOUDY    55  55 100 NW6       29.90R
OSHKOSH        CLOUDY    57  55  93 N6        29.88R
$$

WIZ032>034-041-042-053>061-041000-
SOUTHWEST WISCONSIN

CITY           SKY/WX    TMP DP  RH WIND       PRES   REMARKS
LA CROSSE      CLOUDY    60  58  92 NW7       29.94R
SPARTA         CLOUDY    58  56  96 CALM      29.95R
VIROQUA        CLOUDY    56  56 100 N6        29.95R
BOSCOBEL       FOG       56  54  93 CALM      29.95R VSB 1/2
PRAIRIE DU CHI CLOUDY    58  57  96 S3        29.95R
PLATTEVILLE    CLOUDY    57  56  96 CALM      29.94R
$$

WIZ056-057-062-063-064-067-068-041000-
SOUTH CENTRAL WISCONSIN

CITY           SKY/WX    TMP DP  RH WIND       PRES   REMARKS
REEDSBURG      CLOUDY    57  56  98 NW3       29.93R
BARABOO/DELLS  NOT AVBL
LONE ROCK      CLOUDY    56  55  97 CALM      29.92R
MINERAL POINT  CLOUDY    57  55  94 SE3       29.93R
MADISON        CLOUDY    59  56  89 S7        29.90S
MIDDLETON      CLOUDY    58  57  97 CALM      29.91R
WATERTOWN      CLOUDY    57  57 100 CALM      29.89S
MONROE         CLOUDY    55  55 100 S6        29.92S
JANESVILLE     CLOUDY    57  55  94 CALM      29.90S
$$

WIZ051-052-058>065-066-070>072-041000-
SOUTHEAST WISCONSIN

CITY           SKY/WX    TMP DP  RH WIND       PRES   REMARKS
MILWAUKEE      CLOUDY    63  53  70 VRB3      29.89S
WAUKESHA       CLOUDY    55  52  88 SW5       29.90S
MILWAUKEE/TIMM CLOUDY    59  54  82 CALM      29.88S
RACINE         CLOUDY    64  53  67 NW3       29.90F
BURLINGTON     CLOUDY    56  55  95 CALM      29.89F
KENOSHA        CLOUDY    60  56  86 W7        29.90S
FOND DU LAC    CLOUDY    59  56  89 NW5       29.86F
SHEBOYGAN      LGT RAIN  56  54  93 NE12      29.83F FOG
WEST BEND      CLOUDY    59  55  88 CALM      29.87R
JUNEAU         CLOUDY    55  54  97 S3        29.89R FOG
$$

LSZ147-162-041000-
LAKE SUPERIOR

STATION/POSITION TIME  TEMP    WIND        PRES    WAVE
                       AIR SEA DIR/SP/G            HT/PER
                 (UTC) (F)     (DEG/KT/KT) (MB)    (FT/S)
W MID LAKE BUOY  0850   40 35  300/  8/  8 1015.4R   1
DEVILS ISLAND    0900   47     320/  9/ 11 1016.7R
PORT WING        0800   44     140/  2/  2 1016.3R
SAXON HARBOR     0840   51     310/  7/  9 1015.6R
$$

LMZ867-665-643>646-041000-
LAKE MICHIGAN

STATION/POSITION TIME  TEMP    WIND        PRES    WAVE
                       AIR SEA DIR/SP/G            HT/PER
                 (UTC) (F)     (DEG/KT/KT) (MB)    (FT/S)
CHAMBERS ISLAND  0800   56     160/  4/  6 1011.9R
NORTHPORT PIER   0800   55     190/  3/  6 1011.5S
SISTER BAY       0702   56        CALM       N/A
KEWAUNEE LAKESHO 0800   58      40/  8/ 10 1009.5F
SHEBOYGAN LAKESH 0900   54      50/ 10/ 10 1010.5F
PORT WASHINGTON  0800   53      50/  7/ 11 1012.9F
ATWATER BUOY     0800   57     310/ 10/ 10 1012.8F
MILWAUKEE LAKESH 0800   64     330/  7/ 10   N/A
KENOSHA   LAKESH 0900   64     250/  6/  9 1012.5S
$$

TC  - TEMPERATURE IN CELSIUS
VSB - VISIBILITY IN STATUTE MILES
WCI - WIND CHILL INDEX
HX  - HEAT INDEX




USA.gov is the U.S. government's official web portal to all federal, state and local government web resources and services.